Tracking 35331 objects as of 16-Sep-2026
HD Live streaming from Space Station
objects crossing your sky now

CZ-2F R/B


CZ-2F R/B is no longer on orbit


NORAD ID: 28044
Int'l Code: 2003-045B
Launch date: October 15, 2003
Source: People's Republic of China (PRC)
Launch site: Jiuquan Satellite Launch Center, China (JSC)
Decay date: 2003-10-25

Note: This is a ROCKET BODY
Your satellite tracking list
Your tracking list is empty




NASA's NSSDC Master Catalog

Two Line Element Set (TLE):
1 28044U 03045B   03297.66705689 +.14800781 +88669-5 +20678-3 0  9995
2 28044 042.3942 327.6305 0015160 221.2153 138.7733 16.47737831001560
Source of the keplerian elements: AFSPC